Location: Newark
(50.0306°N, 2.3272°E)
Time: 23:19:31
(UTC+00:00)

Vanguard 1 - Pass Details

Date: 18 December 2019
Orbit: 651 x 3832 km, 34.2° (Epoch: 21 January)

Event Time Altitude Azimuth Distance (km) Brightness Sun altitude
Exits shadow 05:47:49 12° 259° (W) 6,716 13.8 -17.6°
Maximum altitude 06:08:03 46° 197° (SSW) 4,251 13.2 -14.5°
Drops below altitude 10° 06:24:12 10° 131° (SE) 5,337 15.1 -12.1°
Sets 06:27:47 0° 125° (SE) 5,980 15.9 -11.5°
